Regional Weather Roundup
Issued by NWS Nashville, TN

Home | Current Version | Previous Version | Text Only | Print | Product List | Glossary On
Versions: 1 2 3 4 5 6 7 8 9 10 11 12 13 14 15 16 17 18 19 20 21 22 23 24 25 26 27 28 29 30 31 32 33 34 35 36 37 38 39 40 41 42 43 44 45 46 47 48 49 50
000
ASUS44 KOHX 060110
RWROHX
MIDDLE TENNESSEE HOURLY WEATHER ROUNDUP
NATIONAL WEATHER SERVICE NASHVILLE TN
800 PM CDT SUN JUL 05 2015

NOTE: "FAIR" INDICATES FEW OR NO CLOUDS BELOW 12,000 FEET WITH
NO SIGNIFICANT WEATHER AND/OR OBSTRUCTIONS TO VISIBILITY.

* THESE REPORTS ARE NOT UNDER NWS QUALITY CONTROL AND MAY NOT
  REPORT WEATHER SUCH AS PRECIPITATION AND FOG.


TNZ005>011-023>034-057-059-062>066-078-080-060200
...NORTHERN MIDDLE TENNESSEE...

CITY           SKY/WX    TMP DP  RH WIND       PRES   REMARKS
CLARKSVILLE    CLEAR     79  67  66 W3        30.05R
CROSSVILLE     PTCLDY    71  66  84 CALM      30.11F
GALLATIN         N/A     80  32  17 CALM      30.06R
DICKSON        PTCLDY    77  72  83 CALM      30.06R
LIVINGSTON     PTCLDY    75  69  81 S3        30.07
NASHVILLE      MOCLDY    80  71  74 VRB3      30.05R
PORTLAND       PTCLDY   N/A N/A N/A CALM      30.04S
ROCKWOOD       MOCLDY    69  68  97 CALM      30.11S
SMYRNA         PTCLDY    81  72  74 SW3       30.06R
SPARTA         CLEAR     75  73  94 CALM      30.06S
$$
TNZ056-058-060-061-075>077-079-093>097-060200
...SOUTHERN MIDDLE TENNESSEE...

CITY           SKY/WX    TMP DP  RH WIND       PRES   REMARKS
COLUMBIA       CLEAR     79  73  83 S3        30.06R
MCMINNVILLE    PTCLDY    75  72  88 SW3       30.08R
SHELBYVILLE    CLEAR     79  73  83 SW6         N/A
TULLAHOMA      CLOUDY    75  70  83 CALM      30.10R
WINCHESTER     PTCLDY    75  70  83 CALM      30.09R
$$


...KEY TO REMARKS...
VSB - VISIBILITY IN MILES
WCI - WIND CHILL INDEX
HX  - HEAT INDEX



USA.gov is the U.S. government's official web portal to all federal, state and local government web resources and services.